Theta_e
313 313 312 312 312 312 311 312 312 311 309 308 308 307 306 306 306 306 306 307 307 307 307 307 307 307 307 307 308 308 308 309 311 310 313 315 313 311 312 313 314 314 314 314 313 313 313 313 312 311 315 315 311 314 311 313 322 332 339 331 323 325 324 322 318 315 320 321 316 313 314 317 316 313 310 308 312 316 313 314 315 310 309 309 309 309 309 317
312 312 312 312 313 312 311 311 311 310 309 308 307 307 306 305 306 306 306 306 307 307 307 307 307 307 307 307 307 308 309 312 312 312 315 316 312 311 312 313 314 315 314 313 314 313 314 315 311 311 317 317 310 314 315 311 319 334 332 324 329 331 321 319 318 314 317 318 317 315 313 315 315 315 311 311 317 316 314 315 315 315 315 311 310 311 311 317
310 311 311 312 312 311 310 310 309 308 308 307 306 306 306 305 305 306 306 306 307 307 307 307 307 307 307 307 307 308 310 313 313 313 317 316 311 312 312 313 314 314 315 314 315 312 314 314 309 313 321 319 312 316 322 315 316 324 323 322 332 330 318 315 317 317 315 315 318 316 312 314 314 313 311 314 318 316 317 318 315 317 318 317 313 310 314 318
310 311 311 311 311 311 311 311 311 310 309 307 306 307 306 306 306 305 306 306 307 307 307 307 306 307 307 307 308 308 310 313 312 313 316 315 311 313 312 313 313 313 315 314 314 313 313 312 310 317 320 319 319 321 321 315 315 317 319 321 323 319 317 316 316 318 315 313 318 317 313 314 312 311 312 315 317 316 319 318 316 318 320 322 316 310 314 319
311 311 310 310 310 311 311 312 311 310 310 308 306 306 306 306 305 305 306 306 307 307 306 307 306 307 307 307 308 308 312 313 310 312 314 313 311 312 312 313 313 313 314 314 314 313 311 310 313 322 321 320 326 324 316 312 314 316 315 316 316 315 315 315 314 315 313 312 316 317 314 313 311 311 314 316 316 317 319 317 317 317 316 319 316 310 314 318
311 311 310 309 310 310 311 311 311 310 309 309 307 306 306 306 305 306 305 306 307 306 306 306 306 307 307 308 308 308 314 312 309 312 313 313 312 312 312 312 314 314 314 315 313 312 314 314 318 326 324 320 321 319 316 311 312 317 315 313 315 315 314 313 313 313 311 314 317 317 313 312 312 313 314 314 315 316 314 311 313 311 306 309 312 310 315 318
310 310 310 309 308 310 310 310 310 311 310 309 307 306 306 306 305 305 305 306 306 306 307 306 306 307 307 308 308 312 316 312 311 313 313 312 312 312 312 312 314 315 315 314 313 315 319 321 321 323 323 319 315 315 316 313 314 321 319 314 315 313 312 313 312 312 312 315 316 313 311 312 316 315 311 313 314 315 311 304 304 304 301 306 311 311 314 316
309 309 309 308 308 309 310 309 309 311 310 308 307 305 306 306 306 306 305 305 305 307 307 307 307 306 308 308 310 315 315 312 314 314 312 312 312 312 312 313 314 315 315 312 312 316 319 319 318 318 319 316 314 315 315 314 319 322 318 316 316 313 314 312 312 315 314 314 312 311 313 314 316 312 310 316 315 316 312 305 305 304 305 309 315 315 310 312
311 310 309 309 308 308 308 308 309 310 309 308 308 306 307 306 307 306 306 306 305 306 307 308 308 307 309 308 309 313 311 313 316 315 313 312 312 312 312 313 314 315 314 312 311 313 315 317 317 316 316 315 314 316 315 316 316 316 317 318 316 315 316 313 314 318 316 314 312 313 316 313 311 310 313 318 316 315 312 313 313 312 318 317 315 313 308 310
312 311 310 310 309 309 308 308 308 309 309 309 308 308 308 307 307 307 306 306 305 306 307 308 308 309 309 307 309 310 311 317 317 314 313 312 312 312 312 313 315 316 313 312 312 311 314 316 313 311 315 317 315 315 314 315 315 315 319 318 317 318 317 314 315 317 316 315 313 313 316 313 310 311 314 318 314 312 315 320 317 317 325 320 314 311 307 308
313 312 311 310 310 310 309 309 308 308 308 309 309 309 308 307 307 307 307 306 306 306 307 308 309 310 309 310 312 310 312 317 315 313 313 312 312 312 313 314 315 315 314 312 311 311 312 311 309 309 314 315 314 316 313 313 313 314 319 318 319 322 317 315 317 315 315 315 313 313 314 314 311 312 316 317 310 308 317 324 319 320 324 317 315 311 306 306
313 312 312 311 311 310 310 310 309 308 307 307 308 308 307 308 307 306 307 307 307 306 307 308 309 310 308 309 313 312 315 318 315 313 313 312 312 312 314 315 315 316 315 312 312 312 312 311 311 315 316 313 315 317 312 312 313 314 318 317 321 326 319 315 317 315 315 314 313 314 314 316 315 314 317 315 309 308 316 323 322 321 320 315 314 311 307 306
314 313 312 312 312 311 311 311 310 308 307 306 307 308 307 307 306 306 306 307 307 307 307 308 310 310 308 310 312 312 315 316 315 313 313 313 313 313 314 315 315 315 315 313 312 312 312 312 313 316 315 317 318 312 313 315 315 316 317 318 323 326 321 314 313 313 313 314 313 313 316 322 321 317 315 313 310 314 317 321 320 319 316 314 312 311 310 306
314 313 313 312 312 312 311 311 311 309 308 306 307 308 307 306 307 306 306 307 307 307 308 309 310 309 308 310 310 312 314 314 315 314 312 312 312 313 314 315 315 314 314 314 313 312 312 312 313 314 312 316 315 310 320 325 321 319 314 322 325 318 322 320 314 315 313 313 313 313 316 321 323 321 316 311 310 314 318 319 317 317 315 312 312 311 311 307
314 314 313 313 313 313 313 312 311 309 308 307 307 307 307 307 308 307 306 308 308 308 309 310 310 310 312 312 309 312 313 313 316 314 312 313 312 313 314 314 315 313 314 314 313 313 312 313 316 318 312 312 313 316 328 328 327 325 313 324 326 315 326 328 316 316 315 312 311 313 318 318 319 320 315 308 309 312 316 318 316 316 314 311 310 309 310 307
315 315 313 313 313 313 313 312 311 310 309 308 307 307 307 308 309 308 308 309 310 309 310 311 309 311 313 311 310 313 312 314 317 314 313 313 312 314 314 314 314 313 314 313 314 313 313 316 316 314 313 314 322 331 334 325 327 328 316 321 326 318 325 323 314 314 314 312 311 313 318 319 319 318 314 307 308 311 315 318 316 314 312 309 308 307 308 307
316 315 314 314 313 313 313 312 312 311 309 308 309 308 309 310 309 309 311 311 312 310 310 311 308 308 309 309 311 314 312 314 315 314 314 313 313 315 313 314 312 311 314 313 314 314 313 317 313 312 318 321 324 331 329 320 322 325 318 319 324 322 320 319 318 314 311 312 313 313 315 316 317 317 315 312 310 313 319 322 319 313 310 308 307 306 306 306
317 316 316 315 314 314 313 312 312 312 310 309 309 311 311 311 310 311 312 311 310 308 308 309 308 309 310 308 310 313 313 314 315 314 313 313 314 314 315 313 310 312 318 317 314 316 316 318 319 319 323 322 321 322 322 324 327 327 324 323 323 320 317 321 323 314 310 313 315 316 315 314 314 314 313 314 313 315 319 319 317 312 309 308 307 306 306 305
318 317 316 316 315 314 313 312 312 312 311 309 311 312 310 310 311 313 312 309 309 307 309 310 309 311 312 310 312 313 313 314 314 313 313 313 312 314 314 312 314 318 320 320 316 316 319 322 323 322 322 322 321 320 320 325 327 327 332 335 329 322 320 323 324 317 312 313 316 316 315 316 314 314 313 314 315 315 315 314 312 310 309 308 307 306 306 306
319 318 317 316 316 315 314 312 311 311 310 310 313 310 308 311 311 311 312 314 313 309 313 316 311 312 315 314 314 313 313 313 314 314 312 312 312 314 313 312 321 325 321 324 320 314 318 322 324 324 322 320 319 318 318 320 321 324 330 332 327 322 321 322 321 318 312 313 320 317 314 315 314 314 312 312 315 315 315 315 312 311 309 308 308 308 307 306
320 319 318 317 316 315 314 313 312 312 311 311 312 307 309 313 308 307 313 317 312 307 314 317 310 312 314 312 313 312 314 315 313 313 313 312 313 314 315 316 322 322 321 324 319 314 319 323 324 324 319 317 319 320 319 319 321 324 324 322 323 322 321 319 316 315 312 314 321 319 314 315 313 313 311 310 313 314 314 315 314 312 310 309 309 309 308 307
322 320 319 317 317 316 314 314 313 312 311 311 311 309 310 311 308 308 310 314 312 307 312 314 310 314 312 309 312 312 315 319 315 314 313 311 313 313 317 321 321 319 318 318 317 318 322 324 322 320 318 318 319 317 317 319 320 326 324 319 322 322 320 318 315 314 313 313 321 322 316 314 313 312 312 311 311 311 311 312 312 312 312 311 310 309 309 308
323 321 319 318 317 316 315 314 313 312 311 311 311 310 311 312 311 311 309 312 313 310 313 315 314 317 314 310 312 314 316 319 318 317 313 311 314 314 316 321 321 320 318 317 320 321 322 324 320 317 318 319 318 315 317 318 319 323 324 321 323 322 319 318 316 315 313 311 317 321 315 313 313 312 313 312 312 311 310 310 309 309 311 311 311 311 309 309
324 323 320 319 317 316 315 314 313 312 311 311 311 311 313 315 314 313 312 313 314 314 314 312 312 316 317 311 311 316 317 317 317 317 313 312 315 314 315 319 320 320 318 317 319 318 319 319 314 314 317 318 320 318 317 318 319 322 322 320 323 323 320 318 318 318 316 314 314 316 319 321 320 318 317 316 316 315 311 311 311 309 309 309 309 310 309 310
323 323 321 319 317 316 315 313 313 313 312 311 310 311 314 316 313 313 315 316 317 318 312 308 310 314 313 310 312 317 317 316 317 315 312 312 315 314 314 317 318 318 317 316 316 316 318 315 313 317 316 316 321 319 320 321 321 326 324 319 320 321 320 318 319 319 322 324 316 314 322 334 333 327 321 320 322 323 317 316 315 312 310 309 309 309 308 309
322 322 321 320 318 316 315 315 314 312 313 311 309 310 314 316 314 312 317 323 321 319 313 309 312 311 310 311 314 315 313 314 313 312 311 311 313 313 314 315 314 317 318 317 316 316 317 313 315 323 319 317 317 317 320 319 319 324 321 317 317 316 317 318 318 318 325 327 315 311 320 328 328 322 318 322 326 325 320 319 318 315 313 313 311 310 309 308
322 321 321 321 318 316 316 317 314 313 316 315 309 309 313 314 314 311 319 326 322 319 316 312 310 309 310 312 311 310 310 312 311 311 311 311 311 311 314 315 313 315 316 316 317 316 315 314 315 321 321 319 317 318 319 316 320 324 318 317 318 316 319 321 318 319 323 323 316 315 321 322 321 319 320 322 322 320 318 317 316 314 314 314 313 312 311 310
322 321 321 321 318 317 317 316 314 312 315 315 309 309 313 313 313 314 321 325 321 317 316 313 309 309 311 310 310 312 312 313 315 313 310 310 312 312 315 317 316 317 316 316 317 314 314 319 318 317 319 319 320 324 321 314 319 321 313 315 319 319 323 323 322 322 320 320 321 320 319 320 323 325 324 321 320 321 322 322 320 317 316 314 314 314 314 312
321 321 321 320 319 318 317 315 314 313 314 313 309 311 313 312 314 319 324 324 320 317 315 313 310 311 313 310 310 314 313 313 316 314 310 310 311 312 315 317 317 317 313 313 317 313 312 316 316 316 318 318 321 321 316 314 317 314 309 315 317 319 322 323 325 325 323 324 324 322 320 318 321 325 325 322 322 326 325 324 321 318 317 314 315 318 317 314
319 320 320 320 318 317 316 315 314 315 314 311 310 311 313 316 318 323 325 324 320 317 314 313 312 313 315 312 312 314 314 316 316 314 313 313 313 313 312 312 317 320 316 315 318 316 311 309 311 316 317 317 319 314 310 315 316 311 316 323 321 322 323 323 326 324 324 325 321 322 322 317 320 325 326 323 324 328 327 324 323 322 324 321 319 320 317 312
318 319 319 319 318 316 315 315 315 315 313 310 311 313 316 320 321 324 326 321 319 319 314 314 314 313 314 313 314 314 314 316 315 315 316 314 315 317 313 312 318 325 322 319 319 315 312 312 314 316 314 315 319 315 311 312 312 315 328 329 323 325 324 323 326 324 325 323 318 318 317 315 320 324 323 322 321 323 324 326 329 329 334 335 327 321 315 310
316 317 318 318 318 317 316 316 316 315 313 311 313 316 319 321 320 324 325 319 320 321 317 318 316 313 314 313 314 314 315 317 314 315 318 316 315 316 315 315 317 320 320 318 318 316 314 317 318 314 312 315 322 321 315 313 313 319 328 324 320 325 323 321 326 325 325 322 315 314 316 315 318 320 320 321 321 321 320 322 326 328 333 334 324 318 314 309
315 316 317 318 318 316 316 317 316 315 313 311 315 318 319 321 322 323 324 322 322 319 317 319 317 314 314 314 315 313 314 316 315 315 318 316 317 315 315 318 316 317 320 317 316 317 318 317 315 314 314 316 319 320 319 318 317 319 323 323 322 323 323 326 329 322 320 321 315 311 316 319 320 321 319 318 317 319 319 317 318 320 324 323 316 314 314 311
314 315 316 317 317 317 316 316 316 316 313 312 315 317 318 322 324 323 323 324 322 319 318 318 315 313 314 316 317 314 312 316 315 316 317 316 318 318 318 318 314 318 325 319 315 317 318 318 316 315 317 317 315 316 321 322 318 318 320 321 323 325 326 329 333 327 321 324 319 311 316 325 327 323 318 317 319 322 322 320 316 315 316 314 311 310 311 314
314 314 315 316 316 317 316 316 316 315 313 313 316 317 318 322 323 323 324 323 323 322 318 316 316 315 316 317 318 314 313 316 314 316 318 317 319 318 318 317 313 317 322 317 316 317 315 318 319 315 314 315 315 316 321 321 316 317 319 320 320 323 324 320 320 322 321 323 324 318 319 325 325 321 317 320 325 325 322 320 318 318 315 313 314 313 312 315
314 314 314 315 316 316 316 315 316 314 314 314 316 317 319 320 321 322 323 322 324 322 317 318 320 319 317 318 317 314 313 317 316 316 317 316 318 317 316 317 314 314 315 312 319 319 316 319 317 311 313 314 315 318 319 318 316 316 317 321 318 316 324 323 315 313 314 317 321 322 321 321 321 321 319 319 322 321 320 321 322 320 317 315 315 316 318 319
314 314 314 315 315 316 316 315 315 314 314 315 316 317 317 317 319 320 321 321 321 318 317 320 320 320 319 318 318 316 315 318 316 316 317 316 318 318 316 317 315 313 312 311 319 320 319 322 316 312 315 312 310 317 318 315 316 318 320 321 315 313 322 327 320 320 320 321 323 322 320 320 321 321 319 319 319 319 320 321 321 319 319 319 316 317 321 320
314 314 314 314 314 315 316 315 314 313 315 315 315 317 316 315 318 320 320 319 318 317 318 321 320 319 319 318 319 317 315 318 316 315 317 315 317 319 316 317 317 314 313 311 316 319 317 319 318 312 315 313 309 315 319 313 312 318 321 319 317 321 324 322 321 325 325 324 327 326 321 318 319 321 321 320 322 325 322 318 317 318 320 322 319 317 320 319
313 313 314 313 312 313 315 315 314 314 316 316 315 316 316 315 317 320 321 319 317 319 320 321 319 319 319 319 319 317 314 317 316 315 317 316 317 318 315 316 316 314 313 311 314 318 316 316 319 312 311 314 313 315 320 318 313 314 316 314 316 323 324 322 321 323 324 326 327 328 325 321 321 324 325 322 323 326 324 321 321 321 319 320 319 318 321 324
312 313 314 312 311 313 314 314 314 315 317 317 315 315 315 315 316 319 321 319 318 320 321 322 322 321 320 318 317 317 316 317 316 315 318 316 316 317 314 314 317 315 313 312 313 317 315 314 319 315 310 314 318 317 317 319 316 315 317 317 317 319 320 322 321 320 324 329 330 329 325 322 324 326 325 324 325 324 325 326 329 330 322 317 318 318 323 328
311 313 313 312 312 314 314 314 315 316 318 317 315 314 314 316 317 318 318 317 319 320 319 322 325 323 322 319 318 318 317 317 316 316 318 316 315 319 316 314 318 316 313 314 313 315 316 315 318 320 316 317 320 317 314 316 317 316 317 317 317 318 319 321 319 319 322 325 328 329 324 323 327 323 322 328 331 329 327 324 328 333 326 317 317 320 322 326
311 313 313 312 313 314 315 315 314 315 317 318 316 314 314 315 317 317 317 316 318 318 317 320 323 322 323 321 320 320 317 317 317 316 318 317 315 318 317 314 316 315 314 315 314 314 319 320 318 320 321 319 316 312 310 314 317 316 316 316 316 317 318 321 322 321 322 320 320 323 323 323 323 320 325 333 331 328 324 320 323 326 323 318 318 320 320 319
310 312 312 313 314 314 315 316 315 314 316 317 317 316 315 315 316 316 317 316 317 318 318 319 320 321 322 321 320 320 318 317 318 317 318 318 316 318 319 316 315 314 315 317 317 316 318 320 317 317 323 323 318 313 310 312 314 315 317 317 317 317 316 322 325 322 323 322 320 321 322 322 317 317 322 325 321 320 317 316 321 323 321 321 320 319 318 317
310 311 311 313 314 314 315 315 315 315 315 315 316 316 315 315 315 316 317 316 317 318 319 318 320 321 321 319 318 319 319 319 319 317 318 320 319 317 319 319 316 315 315 317 318 316 316 319 318 317 322 324 321 318 315 313 313 317 321 319 317 317 317 319 322 321 322 323 321 321 323 321 318 317 319 318 318 322 322 319 321 321 322 326 325 320 316 315
310 310 311 312 312 313 314 313 313 314 315 315 316 316 315 315 315 315 317 316 316 319 319 319 320 320 320 319 318 317 318 320 321 318 318 321 321 317 316 318 317 314 316 320 320 317 318 320 317 316 320 322 321 322 320 318 316 318 322 320 316 317 318 317 319 320 321 322 321 321 322 320 319 319 319 317 317 321 325 325 320 317 321 325 324 319 316 315
308 309 310 310 310 311 312 313 313 313 314 314 315 316 316 316 315 315 316 316 316 317 319 320 320 320 320 319 319 319 318 320 321 320 319 321 323 318 314 315 315 314 319 323 321 319 320 320 317 317 320 320 321 323 322 321 319 318 319 319 315 315 316 317 318 320 320 320 321 320 320 320 319 320 322 321 321 323 326 328 324 321 322 322 320 318 315 312
307 308 310 310 311 310 310 312 313 312 313 314 314 315 315 316 315 315 315 316 316 316 318 319 319 319 320 319 319 320 319 319 319 319 319 320 321 318 313 311 312 314 317 318 318 319 320 319 318 318 318 318 320 324 323 320 320 319 318 318 316 315 316 317 319 319 319 320 321 319 319 320 319 318 322 324 324 324 325 328 329 326 323 320 321 321 315 309
306 308 308 309 310 310 310 311 312 311 312 313 313 314 315 315 316 316 315 315 316 316 317 317 318 319 319 320 320 320 320 320 319 319 319 319 319 319 316 313 312 312 312 312 313 317 320 319 319 318 318 317 317 321 323 321 319 319 318 317 317 315 315 317 318 318 319 320 321 319 319 320 318 316 319 321 322 323 326 326 323 319 319 322 325 323 318 316
305 306 306 306 308 309 309 310 311 311 312 313 313 313 314 314 315 315 315 315 316 316 316 317 318 318 318 319 320 320 320 320 320 319 318 318 319 320 320 318 314 309 310 311 311 314 318 320 319 318 318 319 318 319 321 320 318 318 318 318 317 315 315 316 316 317 318 318 319 319 320 320 318 316 318 320 320 321 324 323 318 317 323 328 327 321 319 321
305 305 305 305 306 306 307 309 311 311 311 311 312 312 312 313 314 314 315 315 315 316 316 316 317 317 318 319 319 319 319 319 320 320 318 318 318 317 319 322 319 310 308 310 312 312 316 319 319 317 318 319 319 318 319 318 317 317 319 318 316 315 315 316 316 317 317 318 318 318 319 319 316 317 320 323 321 318 319 321 319 319 322 324 323 320 319 320
303 303 304 304 305 306 307 308 310 310 310 309 310 311 311 312 313 313 314 314 315 315 315 316 316 316 317 318 318 318 318 318 319 319 318 318 319 318 318 319 320 315 309 309 312 313 314 317 319 318 319 320 319 319 319 317 315 316 318 318 317 316 316 315 316 316 317 318 318 318 319 318 317 319 321 322 322 321 320 320 319 318 319 319 320 319 318 319
301 301 302 302 304 306 306 306 307 309 310 309 309 310 311 312 312 313 313 313 314 315 315 315 316 316 316 317 317 317 317 317 317 319 319 319 319 320 320 318 317 318 314 311 312 313 314 316 318 318 319 320 319 319 319 317 317 318 318 318 317 316 316 316 316 315 315 317 318 318 318 316 317 321 321 320 322 322 321 320 319 317 317 317 317 317 317 317
Wind_Speed
5 4 4 3 3 3 4 4 3 3 3 3 2 3 3 4 4 3 3 3 2 1 0 1 2 3 4 5 5 5 6 5 2 3 3 2 3 4 5 5 5 6 4 3 3 3 2 6 8 6 5 4 5 2 3 3 3 4 3 4 2 3 4 6 8 7 4 3 6 4 4 7 4 2 2 1 3 2 1 3 3 3 5 7 5 1 6 13
4 3 3 3 3 4 4 3 3 3 3 2 2 2 3 4 4 4 4 3 2 1 0 1 2 3 4 5 5 6 6 3 2 4 4 3 3 4 5 5 5 6 4 5 6 5 4 4 5 6 6 3 3 3 2 3 4 4 3 3 3 5 5 5 8 6 2 2 6 4 2 4 5 5 3 3 2 3 1 4 3 5 7 7 5 4 8 13
4 4 3 3 3 3 4 3 3 3 3 2 2 2 2 3 3 3 4 3 3 2 0 1 2 3 4 5 5 6 5 2 3 3 2 4 5 5 5 5 5 5 6 6 7 7 6 3 3 5 5 4 2 3 3 4 2 2 3 2 5 5 4 3 6 6 4 3 7 5 2 1 2 4 3 4 1 0 4 5 2 5 9 7 5 6 10 13
4 4 3 3 2 3 3 3 3 3 3 2 2 2 2 2 2 3 3 3 3 2 1 1 2 3 4 4 5 5 4 4 2 2 2 4 5 5 5 5 5 6 6 7 6 7 7 6 6 6 4 3 4 3 3 3 1 2 3 3 4 3 1 2 5 5 3 3 6 5 3 1 2 2 3 5 3 3 6 7 8 9 10 7 6 7 11 13
5 4 3 2 2 2 3 3 3 4 3 2 2 2 2 2 2 2 3 3 3 2 1 1 1 3 4 4 5 5 5 5 1 1 2 5 6 5 5 5 6 6 6 6 5 6 6 5 7 6 5 3 4 4 2 3 1 3 1 3 4 2 2 1 3 3 3 3 5 6 5 3 2 1 3 7 6 5 6 6 8 9 7 6 8 10 11 12
5 4 3 3 3 2 2 3 3 4 3 3 2 2 2 2 2 2 3 3 3 2 1 0 1 3 3 4 5 4 5 2 3 1 4 6 7 5 5 5 6 7 6 5 4 5 5 5 7 4 4 3 3 3 1 3 1 3 1 1 3 3 1 1 2 2 3 5 6 5 4 2 3 1 2 6 9 7 4 4 5 6 5 6 9 11 10 12
5 4 3 3 2 2 1 2 3 3 3 3 3 2 2 1 1 2 2 2 2 2 1 1 1 2 3 4 4 5 5 0 2 4 6 6 6 4 5 6 7 7 5 5 5 4 5 7 6 3 4 4 1 2 1 3 3 5 2 1 2 3 0 1 1 2 4 6 5 3 2 3 4 3 1 5 11 6 3 3 3 6 6 7 8 10 11 13
3 2 3 2 2 2 1 1 2 2 3 4 4 3 2 2 2 1 1 1 1 1 1 2 2 2 3 3 3 4 3 1 0 5 7 6 5 4 4 5 7 6 6 8 6 5 4 6 5 4 4 3 3 2 2 2 5 5 2 2 1 1 2 1 2 3 3 3 2 3 3 2 5 3 0 8 12 5 2 1 0 1 5 7 8 9 10 11
2 2 1 1 1 1 1 1 1 1 2 3 3 3 2 2 2 2 1 1 1 1 1 2 2 3 3 3 6 4 2 2 1 6 7 6 5 3 2 5 7 5 8 9 6 5 3 2 4 4 4 2 4 2 3 2 1 1 3 1 2 1 4 1 2 4 2 1 2 4 1 3 2 0 4 10 7 3 1 3 2 3 5 6 6 8 11 10
2 2 1 1 0 1 1 1 1 1 2 2 2 2 2 2 2 2 2 2 2 2 2 3 3 4 3 3 6 2 2 3 2 6 7 6 5 3 3 6 7 7 8 8 8 7 3 5 5 5 6 3 3 2 2 2 2 2 3 3 3 1 3 2 2 2 1 0 2 4 2 3 2 1 5 5 2 1 2 1 1 3 5 6 5 7 10 11
2 1 1 1 1 1 1 1 2 2 2 1 1 1 2 2 2 2 2 2 2 2 3 3 3 3 2 5 6 3 2 4 3 6 7 6 5 3 5 7 6 7 7 8 9 8 6 8 9 6 3 2 3 3 2 2 2 2 3 3 4 5 2 3 2 1 2 1 3 4 1 3 3 2 7 3 1 0 3 3 2 3 4 5 5 5 7 10
2 1 1 1 1 1 1 2 3 4 4 3 2 1 3 3 2 2 1 1 1 2 3 3 3 2 3 5 3 4 3 3 3 6 6 6 6 5 7 8 7 7 6 8 7 6 8 8 9 6 1 3 3 2 1 2 2 1 2 2 5 8 3 4 2 3 2 1 3 3 1 4 3 8 8 1 0 1 2 5 3 4 5 4 5 4 5 9
4 2 1 1 0 1 1 2 4 5 4 4 3 2 2 2 2 2 1 1 1 2 3 3 3 3 3 2 2 4 3 1 2 5 6 6 7 8 9 8 8 9 8 10 8 7 8 6 8 8 3 5 3 0 3 4 3 1 3 2 3 7 4 4 2 2 1 1 1 1 3 6 8 13 7 1 2 3 2 6 4 5 5 4 5 4 5 9
5 4 2 1 1 1 2 3 4 4 4 4 3 2 2 2 2 2 2 2 2 3 3 4 3 3 4 1 2 2 2 2 3 5 7 8 8 10 11 9 10 10 10 12 11 10 9 7 11 9 3 4 3 2 4 5 4 1 2 2 2 1 4 5 2 1 3 1 3 3 3 6 8 12 6 3 2 4 6 7 5 6 5 5 5 5 6 8
5 4 3 2 1 1 2 4 4 4 4 3 2 2 2 2 2 3 3 3 4 4 4 5 4 4 3 2 2 0 2 3 4 6 7 8 8 9 9 10 11 12 11 12 12 12 9 7 9 6 1 2 3 4 4 4 4 3 1 2 3 1 5 7 2 4 3 1 3 4 4 6 9 10 5 3 2 4 6 8 6 7 6 6 5 5 6 7
5 5 4 3 1 1 2 4 4 4 3 2 1 2 3 4 4 4 5 5 6 6 5 5 4 5 3 1 1 1 1 3 5 6 8 8 7 8 11 11 10 11 11 10 10 10 9 8 5 3 2 2 5 5 3 3 4 4 1 2 2 1 3 6 2 2 1 1 1 2 3 4 5 7 5 2 3 4 5 8 8 8 8 6 5 5 5 6
6 6 5 4 3 2 2 3 3 4 3 1 2 4 5 5 5 6 7 8 8 6 6 5 5 4 1 1 1 2 0 3 5 7 8 7 7 11 12 9 7 8 9 8 7 5 8 7 2 1 3 3 3 4 3 2 3 3 2 1 3 2 2 3 3 2 1 2 2 2 4 7 7 7 6 2 4 4 5 10 10 8 7 6 5 5 6 7
7 7 6 5 4 3 3 3 4 4 2 1 4 6 7 7 7 8 10 11 9 7 6 4 4 3 2 2 2 1 1 3 6 8 9 9 9 11 10 7 6 7 7 6 5 4 5 4 2 2 4 3 2 5 3 4 3 3 2 1 2 2 3 4 4 2 2 2 2 3 5 12 13 11 10 6 5 6 8 9 8 8 8 7 6 7 8 8
7 7 7 6 5 5 4 4 5 5 1 2 7 9 8 7 7 7 7 7 5 3 2 3 3 3 3 2 0 2 5 6 7 7 8 10 10 11 11 9 7 7 5 1 2 3 2 3 4 2 1 2 5 6 7 7 5 6 5 4 3 2 4 6 5 4 2 2 4 7 7 11 13 12 12 7 4 6 8 7 8 9 8 8 8 9 10 10
7 7 7 7 6 5 5 5 5 4 1 4 9 8 5 4 4 1 1 1 3 4 3 3 4 3 2 0 1 6 7 5 3 4 8 10 11 12 8 6 7 7 4 3 1 2 3 4 2 5 6 7 8 7 6 5 6 7 5 4 4 3 5 5 3 5 2 2 6 8 7 11 12 13 14 7 2 5 9 9 10 11 9 9 9 11 11 12
8 8 8 7 6 6 6 5 4 3 1 6 9 5 2 3 2 1 2 3 4 5 3 1 2 2 2 2 4 6 4 3 3 2 8 9 8 8 1 4 5 3 1 3 2 2 4 4 7 9 6 6 7 7 7 6 6 6 5 3 1 3 6 6 1 4 1 3 5 4 4 10 12 14 14 7 4 8 10 11 13 13 11 9 10 13 13 10
10 9 8 8 7 6 6 5 4 2 1 5 7 3 2 4 5 2 2 1 5 4 3 2 2 1 1 2 5 4 2 3 2 1 7 6 3 4 1 4 6 4 2 1 3 3 3 3 11 8 6 7 5 6 7 6 5 4 3 3 2 3 5 6 3 4 1 3 4 4 4 9 11 13 15 12 10 10 11 13 14 13 11 11 11 13 12 10
13 11 10 8 8 7 6 6 5 3 2 4 6 4 3 5 6 3 3 1 4 2 3 3 2 3 2 1 6 6 3 3 3 4 7 7 2 3 5 5 5 4 3 4 5 4 2 6 9 6 8 7 6 5 7 6 3 3 4 3 3 3 1 4 4 3 1 2 2 4 6 7 9 12 14 13 9 9 11 13 13 11 12 15 13 10 10 12
16 14 11 10 8 8 7 6 5 5 5 5 8 7 5 7 7 3 2 2 3 3 2 5 4 4 5 3 8 9 2 3 4 4 10 10 4 3 5 5 5 5 4 7 8 6 5 6 2 6 7 7 6 4 6 5 2 2 4 6 4 4 5 5 4 4 2 2 2 3 6 6 6 8 11 7 3 6 10 10 11 12 13 14 12 11 12 12
18 17 14 11 9 9 9 7 6 7 6 5 9 10 8 8 7 4 3 3 3 4 2 3 3 5 8 6 9 9 2 2 4 5 12 11 7 4 3 2 4 4 6 5 6 5 7 5 4 6 4 6 7 4 5 7 3 4 5 9 9 7 6 4 3 5 4 4 3 3 4 5 3 5 10 5 4 7 7 6 11 12 11 10 11 13 12 10
19 19 17 14 12 13 9 5 8 9 6 4 6 10 11 9 6 4 4 4 3 4 1 3 3 6 9 7 8 7 3 4 4 5 11 10 6 5 3 2 2 4 6 5 3 3 3 3 4 6 5 6 6 3 5 7 5 3 5 8 9 6 4 3 0 2 1 4 3 2 1 6 4 6 11 5 5 11 9 9 13 11 10 9 10 11 9 8
19 21 20 17 17 18 10 3 7 8 4 4 6 13 13 9 7 3 4 4 4 3 4 2 1 6 8 7 8 7 3 5 1 4 6 7 3 4 3 4 2 2 4 4 1 2 3 3 3 5 6 6 5 3 6 8 7 3 4 4 6 7 6 5 4 3 3 3 4 1 2 5 5 7 9 4 6 13 12 14 15 12 12 11 10 10 8 8
19 21 22 21 22 23 14 6 10 10 2 1 9 16 14 10 6 3 4 1 3 2 4 1 1 4 3 3 5 5 2 2 4 2 1 4 3 4 3 6 5 5 4 5 4 4 3 6 7 7 5 4 6 5 8 11 5 4 3 6 6 6 5 5 5 2 1 3 5 2 4 4 7 5 4 2 5 10 11 15 16 13 13 11 9 9 7 7
18 22 24 24 24 24 19 10 8 8 3 3 12 17 15 11 5 4 4 2 2 1 2 1 3 2 2 3 1 3 2 2 2 2 2 4 2 4 3 6 6 6 3 3 5 2 1 5 7 8 5 6 4 1 6 10 4 3 6 7 6 5 5 5 4 3 3 3 6 5 6 3 6 4 1 1 3 7 10 12 12 11 11 9 7 6 5 4
13 19 24 26 26 27 21 12 10 8 5 8 14 18 14 6 3 3 3 3 1 1 0 1 2 1 6 8 1 2 3 2 0 1 3 1 2 6 2 3 6 5 1 3 2 3 1 1 2 4 4 5 5 3 1 4 5 6 7 6 6 5 4 3 2 4 2 5 6 5 9 6 5 3 4 4 4 6 8 7 8 9 9 8 5 4 3 4
8 12 21 27 30 30 19 11 17 14 8 15 20 16 9 3 2 5 6 1 1 1 2 1 1 4 10 10 4 2 2 2 1 4 3 1 2 4 2 2 4 4 2 4 4 2 1 1 1 2 2 4 7 5 4 4 5 6 5 4 4 3 4 4 4 3 1 6 4 2 5 6 6 6 4 5 6 6 7 7 8 8 9 8 4 2 3 3
8 8 16 27 32 33 22 13 21 18 10 20 23 11 3 1 2 5 4 1 0 3 5 3 1 6 9 6 4 6 4 1 2 5 5 4 4 5 5 5 5 3 2 7 4 2 1 4 3 1 1 4 6 5 5 4 2 4 4 5 4 2 3 2 3 0 3 7 3 2 1 4 8 8 8 10 11 10 9 9 9 8 10 9 3 2 2 1
8 7 12 24 30 30 24 16 19 19 16 21 16 7 3 4 5 8 7 3 1 2 3 4 2 5 8 6 4 4 3 2 4 3 2 4 5 6 5 4 6 3 2 6 3 0 3 5 1 3 1 3 7 6 3 1 3 5 5 6 4 2 1 3 3 1 4 6 3 1 1 3 5 5 11 17 16 12 9 9 10 9 11 10 4 1 1 1
7 7 8 18 26 27 23 17 17 23 23 19 9 5 6 6 4 8 11 6 0 2 3 4 5 4 5 4 3 5 3 2 5 4 2 4 4 6 5 6 6 2 3 4 3 5 5 6 5 7 3 6 10 8 6 6 5 5 4 5 5 5 5 4 4 3 5 5 3 2 2 3 3 3 8 11 11 8 6 8 7 8 12 9 4 1 1 2
6 8 7 12 22 27 26 20 20 25 24 15 5 5 8 7 3 5 8 4 1 1 3 3 6 5 3 2 3 4 4 2 4 5 3 5 5 6 6 7 9 5 4 4 2 3 4 7 6 2 1 10 11 5 5 8 3 3 3 4 4 5 5 2 3 5 2 3 4 2 4 5 4 6 8 6 7 6 5 7 6 10 12 8 6 5 3 4
5 6 6 9 17 24 26 23 23 28 22 9 3 5 6 6 3 3 4 4 3 4 5 3 4 4 5 2 2 4 1 1 4 4 2 3 3 6 6 7 10 11 9 7 3 2 2 5 5 2 1 5 6 3 3 3 3 3 3 4 4 4 7 3 2 1 3 2 4 2 5 6 3 7 8 6 8 8 6 7 8 10 10 7 7 5 4 5
6 6 6 9 13 19 24 24 26 27 17 6 5 6 4 4 3 2 3 3 4 7 7 3 3 5 5 3 3 5 2 1 4 4 4 2 3 6 7 4 6 14 13 7 3 3 5 4 5 1 1 3 1 3 3 3 3 5 4 6 3 2 3 3 2 2 3 3 5 2 6 6 2 5 5 2 8 10 9 10 9 9 8 8 8 5 5 6
4 5 5 10 15 17 20 26 28 20 7 4 7 6 4 4 3 3 2 2 4 6 7 6 5 5 6 6 5 6 5 3 4 5 4 3 5 7 10 4 4 14 15 7 2 3 4 3 5 1 3 3 3 3 2 4 2 5 4 4 4 2 2 2 3 3 2 4 4 3 5 5 5 5 3 4 9 10 11 10 8 9 10 9 8 5 5 5
3 2 3 9 17 18 21 28 25 11 3 4 6 5 4 4 2 3 4 2 3 5 7 8 6 4 5 6 4 5 7 6 8 7 4 5 5 6 12 9 6 10 13 11 6 2 3 3 4 2 1 1 3 2 4 1 2 3 1 2 2 2 4 3 3 3 3 3 3 4 5 5 7 6 7 10 11 10 10 7 7 11 12 10 7 5 5 4
2 2 2 5 15 21 25 25 14 4 3 5 4 4 4 4 3 5 5 3 2 3 5 7 6 4 4 4 3 4 7 6 8 7 5 6 6 5 8 9 4 4 8 11 8 2 3 4 4 2 3 1 3 5 8 9 7 4 3 4 3 1 2 1 1 2 3 3 2 2 7 9 6 5 8 10 9 10 10 7 8 10 9 9 7 5 5 5
1 2 2 6 17 25 24 15 5 4 5 4 4 3 3 2 3 4 3 1 0 1 1 3 5 5 3 3 3 4 6 6 8 7 5 6 7 5 6 9 8 7 6 7 8 6 4 4 4 2 1 4 4 3 5 8 9 9 8 9 10 7 5 3 3 1 2 2 3 3 7 12 6 4 7 7 6 8 8 8 8 7 6 7 6 5 6 5
3 3 2 9 24 30 18 4 3 3 4 5 5 4 4 3 2 4 4 3 1 1 1 0 3 5 5 5 5 5 5 5 7 7 5 7 10 7 4 6 10 12 9 6 7 6 4 3 3 4 4 6 4 1 1 3 2 4 4 5 7 7 7 6 6 3 2 1 1 3 5 11 5 5 5 5 5 5 5 6 7 6 4 4 6 5 5 4
3 2 0 11 30 30 11 3 5 3 4 4 3 4 5 4 3 4 5 5 4 3 2 2 3 5 5 5 5 6 6 5 6 7 5 5 7 6 4 6 9 10 8 3 2 2 3 2 4 4 3 3 4 3 2 2 2 2 3 1 4 7 7 5 4 4 4 4 3 3 5 11 4 1 3 3 3 4 5 5 6 6 4 4 6 7 4 4
2 2 1 11 30 24 7 4 6 5 6 4 2 3 3 3 5 6 6 7 6 4 4 4 4 4 4 2 3 4 6 4 4 7 5 3 4 3 4 10 10 8 6 3 3 5 4 4 5 5 3 3 4 3 2 1 1 3 4 3 6 9 7 3 2 3 3 8 10 7 8 11 4 3 3 2 3 5 6 5 5 6 5 5 6 5 4 5
1 2 1 7 18 15 6 5 6 6 8 8 6 7 5 2 5 9 9 8 6 4 5 5 5 5 3 2 3 2 4 4 4 5 4 4 3 2 2 9 12 9 5 2 4 7 5 4 6 7 7 8 7 5 5 4 2 2 4 7 9 11 11 6 3 3 5 10 10 7 10 13 4 2 4 4 3 4 7 6 4 5 6 6 5 4 4 4
1 3 2 3 6 6 4 3 4 6 8 9 8 8 10 7 3 5 8 8 7 7 5 3 5 6 4 5 6 6 7 8 6 3 4 4 3 2 1 5 7 6 2 6 6 5 2 2 8 11 12 13 11 6 3 6 7 6 10 10 10 12 13 10 5 6 10 10 6 8 15 19 13 5 5 6 5 5 7 6 5 6 7 7 5 5 5 5
3 4 4 3 2 4 5 4 3 4 5 8 6 5 10 11 5 2 5 7 8 9 6 2 5 6 6 8 9 8 9 9 7 5 5 4 3 3 1 2 4 4 2 5 4 5 3 3 8 11 13 15 11 6 3 6 9 13 15 13 12 12 13 12 11 13 13 9 9 14 17 18 22 16 9 7 7 6 7 7 6 7 6 5 5 5 5 5
3 2 2 1 1 4 6 6 7 7 7 7 5 3 7 11 9 7 5 5 7 9 7 3 6 10 10 10 9 6 7 8 7 8 8 5 3 3 2 1 4 4 3 2 1 3 4 4 5 6 10 15 13 7 5 5 6 9 13 15 15 15 16 17 19 21 17 12 13 19 18 17 24 22 12 10 9 7 8 8 6 5 5 5 5 5 5 6
3 2 2 1 0 2 3 2 5 9 11 8 5 6 7 9 12 9 5 4 5 8 9 8 10 14 14 11 9 7 7 7 6 7 8 8 6 4 3 3 2 2 4 4 2 2 3 4 5 4 5 12 15 11 7 7 7 6 8 12 14 16 19 22 23 25 23 18 17 21 19 18 21 18 11 10 9 8 8 6 3 4 7 8 7 7 7 8
2 1 1 1 1 1 2 1 4 5 8 7 5 7 8 10 13 9 6 7 6 6 10 14 14 13 14 13 11 11 11 10 9 10 9 9 9 6 5 5 2 1 2 4 2 2 3 5 5 5 3 11 15 14 10 8 9 9 8 7 10 15 20 23 22 21 19 18 20 21 18 18 18 11 6 6 6 6 7 7 8 9 10 9 9 9 9 9
5 1 1 2 0 3 2 1 3 4 4 4 3 5 7 10 11 7 5 8 10 8 10 16 17 12 10 13 14 15 15 14 14 14 12 11 10 6 5 5 4 4 2 3 2 3 4 2 1 4 4 10 14 15 14 9 5 8 10 10 14 17 17 18 17 16 16 17 20 18 14 17 15 6 5 6 6 7 9 10 11 11 11 11 12 12 11 9
9 5 1 1 1 4 4 1 3 5 4 5 6 5 5 4 4 4 4 5 9 11 9 13 16 11 8 13 17 18 18 16 15 12 7 7 7 5 5 6 7 8 6 4 2 3 5 3 1 3 4 9 14 13 9 6 3 7 13 19 23 20 15 12 13 17 19 17 15 13 14 20 16 5 5 9 7 8 12 11 11 12 13 12 12 11 10 10
Wind_Direction
156 142 145 126 110 115 108 98 90 93 111 123 136 155 165 165 173 172 173 171 166 168 83 3 354 355 352 352 356 358 353 355 19 75 92 103 70 70 60 43 38 31 28 30 60 106 61 34 23 43 85 53 17 350 21 21 51 58 76 102 159 176 198 188 177 191 169 182 195 209 190 146 169 206 164 142 44 37 334 300 286 290 252 235 248 227 166 165
175 160 151 130 122 130 127 123 122 124 121 130 151 162 165 168 176 175 174 170 173 178 57 339 351 350 352 355 356 358 349 350 72 76 85 126 97 83 67 46 41 33 44 62 62 75 76 24 9 49 60 46 352 354 35 2 46 83 107 116 206 194 203 200 172 180 177 161 167 170 170 155 179 167 147 188 308 8 248 269 312 308 270 243 234 204 176 170
183 171 154 143 140 137 137 136 134 132 120 113 109 119 150 164 173 179 179 175 178 178 199 324 346 349 359 357 355 358 350 26 69 46 82 133 110 95 73 52 46 42 50 62 64 69 89 101 69 73 58 53 6 5 44 8 22 128 113 129 235 212 215 224 180 186 214 165 142 149 158 168 200 157 154 188 189 81 213 231 221 255 255 237 209 186 173 173
174 162 160 158 143 128 122 118 113 110 103 108 108 109 134 148 168 182 180 176 180 182 203 329 345 356 4 358 3 357 9 64 60 348 114 137 118 106 79 56 45 44 47 56 67 70 85 96 75 70 70 55 344 19 52 349 336 117 106 170 231 206 152 222 200 201 213 159 138 138 124 163 222 166 155 153 154 249 238 225 208 221 232 221 201 184 175 179
167 165 170 163 140 127 112 107 110 121 117 115 115 113 133 152 167 174 181 184 182 177 193 335 352 8 9 9 6 350 28 72 249 313 126 147 125 113 80 49 37 41 41 48 63 73 80 81 66 53 57 57 352 31 55 312 78 79 57 190 202 170 87 241 221 198 168 110 106 121 143 180 156 140 160 157 186 234 228 219 215 220 216 203 192 181 176 185
173 177 176 164 153 138 116 120 125 129 120 115 126 114 127 157 163 165 180 186 182 179 181 101 30 20 20 19 7 11 63 87 265 159 144 147 129 112 73 41 33 35 33 52 62 74 72 51 59 55 54 62 13 59 83 300 51 94 9 254 208 193 79 341 240 193 149 116 128 152 175 139 112 239 188 178 219 225 209 216 220 236 230 202 179 171 176 189
184 180 180 176 164 144 102 130 131 121 121 132 132 105 97 111 134 164 174 179 179 168 159 127 61 42 36 28 18 41 75 81 282 151 155 140 132 112 69 36 34 34 35 62 60 90 81 51 74 119 84 74 166 111 39 306 39 89 123 272 198 179 206 298 200 166 138 138 170 172 130 124 167 220 79 218 239 233 236 263 248 248 223 189 170 177 191 194
173 173 186 186 158 143 139 143 121 110 145 148 127 103 90 73 62 54 124 163 148 135 143 116 81 68 53 57 72 43 41 335 91 153 156 142 136 111 73 40 40 40 58 60 61 130 106 65 114 152 80 81 166 116 342 343 43 68 140 226 150 148 298 281 127 106 122 148 150 120 126 196 201 183 124 244 246 244 255 328 346 193 164 177 182 192 198 198
32 12 218 193 136 112 126 117 91 82 109 117 112 113 99 67 42 24 34 69 83 97 103 101 82 72 74 83 89 70 309 336 114 161 156 150 135 106 73 49 50 55 69 60 58 107 115 134 172 174 133 142 138 92 342 63 61 108 129 171 107 357 324 48 107 63 56 138 107 138 164 284 239 199 268 255 250 233 166 64 58 124 151 188 195 200 199 200
353 357 351 226 279 3 49 57 32 47 65 74 97 111 97 65 30 17 26 38 50 61 72 90 83 78 96 92 84 96 270 32 112 165 157 152 140 121 69 57 60 71 74 61 58 67 89 167 168 147 133 118 106 73 353 83 135 126 109 127 91 360 313 52 106 43 7 206 150 183 235 296 315 310 254 269 309 139 135 83 13 153 185 207 205 211 206 208
304 322 327 255 265 334 16 4 346 8 25 31 76 108 95 64 31 8 18 37 40 57 68 78 85 85 83 88 100 171 216 60 107 154 155 154 142 124 71 64 71 82 81 67 61 56 85 141 139 124 116 105 106 47 8 102 110 84 114 143 12 355 350 34 41 344 356 191 180 161 206 304 1 260 237 259 345 191 167 200 252 206 224 226 220 226 213 220
260 255 260 230 252 334 20 357 350 6 7 358 334 18 75 55 41 21 30 62 44 63 79 78 88 104 63 66 118 190 174 80 105 139 154 156 136 112 79 71 75 82 92 85 66 60 98 131 114 93 78 139 123 42 102 106 82 60 86 149 329 358 12 347 346 311 345 157 188 134 323 283 226 228 241 300 256 88 165 220 243 232 241 244 237 246 231 232
242 227 223 166 190 308 339 1 4 5 4 360 341 10 55 35 38 36 63 97 82 92 98 95 95 94 76 53 200 183 178 108 121 139 144 144 125 103 87 83 84 84 92 92 75 74 108 128 98 101 117 107 115 139 116 59 45 348 36 81 336 2 343 312 360 336 176 147 344 98 273 264 240 243 252 337 161 126 239 242 240 237 247 251 245 254 248 239
235 218 203 140 78 3 357 3 1 353 354 360 7 66 68 37 48 57 93 103 111 113 107 113 120 97 86 231 224 180 226 207 158 158 151 150 130 103 95 92 91 91 90 88 77 74 99 109 94 100 87 80 127 101 49 15 24 33 18 46 24 9 282 293 324 130 160 192 28 100 244 266 267 264 270 306 195 168 240 248 242 243 244 247 246 248 251 243
233 220 204 176 97 30 12 359 345 338 349 4 36 89 82 68 72 75 95 108 115 119 118 120 131 109 71 289 239 197 252 195 174 172 159 159 144 113 105 104 98 95 91 85 79 75 85 92 79 79 55 27 72 72 34 359 20 36 359 312 356 168 270 303 285 165 160 350 54 124 239 273 270 269 288 321 187 179 243 256 255 253 246 243 246 243 249 255
228 223 219 208 205 354 352 349 338 332 347 14 86 106 92 90 93 97 108 111 115 121 117 118 126 115 94 288 222 276 255 168 167 166 159 164 160 133 120 111 98 95 94 84 84 78 63 62 61 72 120 68 68 83 53 16 357 360 61 236 270 173 282 316 320 218 199 76 108 198 243 276 276 277 314 350 165 172 244 264 262 254 253 245 242 245 244 255
229 228 229 227 236 269 314 332 332 331 349 54 127 116 104 100 100 111 116 112 116 117 108 123 124 105 108 217 208 278 292 140 150 153 152 151 154 142 126 106 91 98 93 79 80 65 36 45 74 19 56 62 88 95 60 351 291 317 23 224 241 206 235 296 310 298 43 88 215 235 244 256 268 279 293 282 170 174 229 254 259 254 256 248 240 247 244 243
234 234 232 233 240 247 272 300 312 321 349 125 134 116 107 107 113 123 126 119 110 92 88 116 104 85 259 225 187 237 81 123 136 139 139 132 140 143 125 105 102 92 67 48 45 34 21 33 61 55 34 21 78 101 129 222 214 184 176 171 252 247 230 259 280 246 103 72 229 233 254 261 269 274 275 256 174 191 232 247 261 261 255 251 245 242 242 241
241 238 233 235 234 238 255 277 295 301 326 141 139 122 105 99 109 125 131 126 120 109 141 201 138 138 213 238 197 104 95 114 132 137 135 130 132 125 105 95 94 81 74 67 6 21 50 53 58 94 208 219 178 162 181 196 158 150 169 148 164 217 252 240 250 259 202 120 241 234 241 261 270 273 274 265 174 202 247 259 265 261 252 249 245 243 244 240
249 240 234 234 227 231 245 266 288 291 292 156 148 129 109 92 72 56 250 213 189 155 135 195 167 130 132 313 107 119 109 100 117 147 142 141 133 113 83 51 49 52 85 159 176 15 78 94 141 213 214 201 191 175 151 146 120 116 125 119 155 193 271 251 244 292 253 161 252 240 237 262 270 271 272 270 179 224 253 257 257 254 249 245 241 244 242 239
251 242 238 234 224 223 235 261 281 286 263 171 160 141 155 157 110 281 264 272 229 172 116 119 138 114 127 165 163 145 123 69 47 134 152 156 143 131 65 24 73 56 308 176 143 30 70 123 220 227 195 167 174 150 122 114 94 94 126 138 191 209 259 260 227 312 300 178 266 282 262 263 265 270 273 269 232 241 241 242 250 249 247 246 242 245 244 243
245 240 238 233 224 215 223 249 260 268 259 182 169 145 176 168 137 125 127 291 263 206 156 108 61 294 229 171 185 162 86 78 48 242 171 153 131 167 152 67 124 173 255 134 103 40 65 214 237 220 128 100 103 127 125 117 102 90 116 135 236 240 271 286 309 341 351 188 266 320 296 266 264 268 270 260 245 245 239 235 245 248 249 248 240 242 245 247
245 238 232 230 223 207 211 231 243 261 239 192 184 165 150 151 134 113 105 95 292 276 152 172 200 232 219 249 196 163 107 157 175 245 190 149 101 171 134 110 139 140 151 177 158 147 172 248 245 183 135 109 76 96 112 105 108 121 132 148 225 244 265 281 297 337 349 186 272 305 295 274 264 264 264 259 247 250 251 244 247 247 245 248 245 242 241 241
247 240 230 224 214 198 206 224 236 246 234 223 215 190 149 148 148 140 111 73 298 288 225 198 190 188 191 198 178 162 140 182 170 206 185 156 122 151 150 142 133 126 187 196 173 180 217 244 214 120 142 139 111 117 130 132 223 241 188 183 202 222 217 236 289 327 333 10 16 321 304 282 260 259 262 276 307 270 259 255 257 250 242 248 256 253 241 238
245 241 229 218 208 192 198 221 233 228 223 237 225 195 159 157 156 142 110 57 308 295 300 208 194 202 190 158 161 162 121 220 216 199 179 164 141 139 163 140 128 174 197 171 161 218 248 229 128 103 129 140 133 163 169 159 197 282 231 203 207 215 219 239 347 6 356 337 347 17 325 284 288 274 260 282 330 280 267 261 259 256 250 244 249 251 243 238
241 239 226 212 199 185 185 227 235 215 209 243 217 180 169 163 146 136 100 51 297 273 216 181 178 189 181 153 157 143 91 259 250 159 164 171 153 114 137 134 74 195 182 141 157 226 242 209 128 123 140 142 141 186 214 171 150 277 250 204 204 192 182 215 18 40 291 271 283 61 348 280 294 267 262 278 290 274 277 274 264 262 261 245 238 247 244 236
238 237 227 211 192 182 182 220 205 184 198 255 191 172 175 160 138 136 79 33 285 204 139 203 190 162 172 171 162 136 170 239 97 113 158 170 174 71 120 173 99 187 169 124 222 251 171 169 136 129 125 133 155 197 215 168 142 238 245 152 158 160 176 193 157 180 234 279 295 93 132 277 272 251 269 287 266 274 280 274 270 265 259 253 247 248 243 236
237 237 228 214 196 191 198 200 173 171 207 240 167 171 170 156 142 96 83 90 279 125 122 252 136 128 138 159 147 117 200 210 110 187 263 124 168 56 110 196 168 177 178 142 211 265 151 178 190 165 142 167 192 211 191 162 153 244 198 122 131 146 159 140 124 168 329 344 294 219 139 274 267 245 307 345 254 270 271 264 267 267 263 260 257 255 250 244
236 236 230 216 199 197 207 208 181 183 202 139 159 167 159 156 153 67 81 194 257 89 109 118 126 91 72 126 135 62 45 23 114 228 10 96 135 60 141 197 146 155 202 164 205 260 117 200 197 160 162 197 195 244 184 165 175 196 131 99 81 82 85 86 108 123 55 315 259 199 162 250 274 223 178 27 251 256 257 258 263 267 270 269 265 269 277 279
232 231 229 213 193 193 199 208 209 195 171 153 157 159 153 147 128 108 180 220 167 113 87 118 162 157 132 141 199 360 60 17 60 80 39 87 31 36 121 154 94 121 279 339 258 241 320 280 219 153 172 181 130 68 82 135 140 138 111 77 57 42 45 55 52 85 70 279 266 202 181 199 275 257 197 211 223 222 233 257 270 275 283 280 274 290 311 307
228 224 223 208 194 191 188 201 209 196 167 160 153 149 149 89 76 176 204 215 46 136 137 144 165 135 145 151 172 185 102 28 181 132 124 158 64 50 98 116 74 73 5 311 284 279 339 340 260 203 153 123 98 69 33 59 103 111 94 86 77 356 11 27 352 50 148 254 282 280 195 193 240 255 235 247 261 239 219 236 259 272 283 282 283 309 313 303
226 223 219 210 202 196 194 208 202 188 164 160 152 134 124 106 169 210 220 80 91 208 167 160 176 154 158 155 162 169 139 89 184 158 146 150 160 174 186 182 161 99 268 238 249 343 259 227 236 261 153 138 115 84 38 17 48 92 104 111 106 325 349 344 296 118 222 253 276 333 254 228 242 248 252 259 262 248 223 227 244 256 270 275 287 319 319 316
221 221 215 212 207 199 202 212 196 182 165 156 146 103 115 186 203 204 208 187 188 226 133 104 104 148 155 155 173 165 127 155 184 167 138 138 169 207 237 221 184 159 195 198 193 244 271 292 244 160 239 186 154 148 147 191 182 155 150 144 141 151 181 251 267 276 267 270 282 288 241 254 265 256 240 240 246 243 227 233 240 246 259 266 278 42 21 299
218 218 211 212 210 207 207 208 196 184 165 149 133 108 163 203 205 194 207 211 139 12 47 91 101 114 153 171 207 173 144 210 178 143 125 136 162 214 237 239 212 153 96 142 171 182 214 280 213 176 200 183 182 190 161 141 161 182 159 139 159 165 172 213 222 221 258 286 297 284 240 207 208 253 240 235 254 262 250 249 250 256 258 260 269 230 159 251
223 220 215 210 212 212 209 205 197 183 164 149 144 158 183 203 191 198 210 197 127 39 31 52 98 118 196 276 290 193 161 214 174 135 153 166 183 204 199 210 201 165 136 176 215 160 198 263 244 224 215 169 180 200 122 112 141 208 124 119 193 191 156 174 204 179 186 315 301 247 229 218 205 269 266 247 267 276 272 274 265 259 258 255 256 234 190 226
225 224 217 210 213 213 208 201 189 176 162 144 162 188 202 212 193 190 192 160 162 135 100 58 79 123 206 240 271 226 170 107 150 144 198 201 221 213 200 213 197 182 180 182 193 137 163 275 283 353 340 175 181 190 128 140 184 163 139 179 219 172 126 120 244 90 79 267 271 215 247 279 316 281 266 244 262 273 276 269 250 251 262 264 252 217 179 220
227 227 213 211 215 214 207 197 182 173 166 146 181 199 203 221 205 166 183 155 141 138 136 172 179 162 192 198 210 215 199 87 149 172 199 196 252 214 202 240 196 191 199 183 195 200 161 258 287 106 188 262 274 122 77 24 122 128 180 205 180 108 98 110 207 344 41 247 268 243 248 277 294 277 299 286 255 258 254 250 249 263 273 269 252 200 180 217
238 222 220 225 218 213 206 194 179 172 172 163 194 209 188 202 204 160 171 124 124 157 179 205 199 170 181 196 199 187 179 178 172 187 188 181 245 208 182 212 207 199 205 179 195 243 151 228 295 68 176 287 11 115 95 357 65 129 186 189 127 142 198 124 167 207 213 244 277 286 275 267 215 231 278 242 231 237 243 241 245 259 255 254 250 199 183 216
260 212 254 233 215 211 201 188 178 169 193 195 204 219 197 200 212 172 180 153 133 179 202 216 212 191 185 182 165 161 183 186 169 179 188 183 233 210 176 193 212 201 198 177 185 231 131 197 267 333 236 301 41 160 188 202 38 61 96 148 121 159 181 166 158 174 191 227 267 305 311 268 219 200 205 223 224 221 231 232 228 240 240 241 241 200 188 208
259 229 275 203 197 199 187 178 174 176 204 203 208 205 187 187 193 196 198 176 153 186 208 220 213 203 196 174 154 167 189 193 174 185 206 190 216 238 189 185 173 167 180 178 190 183 116 201 237 319 329 185 179 214 195 177 166 157 161 179 190 138 123 178 176 133 147 170 196 292 292 269 240 185 192 215 223 213 214 217 224 233 238 243 236 205 205 211
222 239 247 179 181 179 170 165 180 204 204 216 219 206 190 172 169 185 180 125 291 250 204 198 192 189 174 168 202 192 179 189 186 191 218 206 208 235 208 180 155 133 136 167 199 200 173 192 190 167 229 206 214 243 208 192 185 181 185 192 193 175 148 184 235 208 110 150 174 190 271 270 249 180 195 209 216 215 210 216 233 241 244 258 249 209 210 216
223 229 218 184 177 168 158 171 214 189 217 220 200 182 162 138 153 181 169 152 208 281 339 220 194 190 180 189 209 194 175 192 196 192 213 218 212 219 223 183 156 148 144 161 207 201 151 138 181 200 216 216 232 301 208 225 229 206 208 200 187 180 172 181 208 212 149 206 175 114 267 271 246 167 198 211 215 233 227 220 243 256 234 247 263 243 225 232
232 233 62 178 176 167 155 217 194 186 236 212 150 144 157 161 176 176 175 184 186 173 194 230 195 191 206 201 186 183 187 195 198 201 221 239 226 220 192 157 144 148 151 158 222 182 111 133 205 233 283 309 317 339 25 55 58 246 255 177 162 196 200 182 186 184 161 189 185 124 249 262 261 178 228 231 248 268 255 223 233 259 244 214 247 260 250 244
238 246 20 181 181 174 167 211 193 202 227 216 157 172 186 192 181 173 178 192 191 168 187 215 204 201 220 166 136 186 203 200 207 212 220 235 237 234 164 156 154 164 181 189 177 172 178 193 196 211 269 317 321 313 297 359 111 217 225 192 196 202 188 134 114 154 177 209 198 186 239 250 266 335 284 284 317 289 267 238 217 242 257 239 239 251 247 246
206 221 274 205 195 189 196 215 204 207 214 218 218 202 201 221 194 191 189 185 188 181 191 215 204 193 193 136 127 184 201 215 237 223 221 235 251 314 176 174 175 187 200 152 138 167 185 190 182 192 217 232 234 233 225 194 148 227 219 198 202 195 179 180 184 166 215 226 200 189 243 248 252 4 268 269 310 281 266 269 253 242 248 249 250 251 242 231
193 211 186 221 222 217 236 241 214 214 209 208 215 207 205 214 214 200 193 188 192 191 189 196 177 178 186 188 202 214 213 225 237 217 217 235 247 301 231 190 195 200 136 91 112 143 150 209 199 199 212 224 228 232 196 138 141 207 220 200 197 198 190 193 200 197 217 228 214 213 236 249 255 238 229 254 252 234 249 275 287 267 249 240 240 245 245 233
219 223 185 182 224 229 244 251 220 225 210 191 192 202 208 212 214 194 198 196 190 189 199 204 175 183 184 187 207 223 215 218 226 221 222 229 255 295 345 164 230 258 66 81 107 122 109 239 217 209 225 236 238 231 182 157 175 204 212 199 193 198 191 192 211 220 219 221 234 230 227 245 258 245 218 230 234 227 245 255 257 261 257 245 234 230 236 241
220 237 212 205 211 207 224 224 207 217 223 200 185 201 212 213 210 201 197 198 190 187 198 221 206 206 199 188 197 215 206 206 214 218 220 223 240 282 302 184 217 216 156 100 46 122 140 227 215 202 237 253 257 245 201 199 206 207 210 203 194 192 189 197 215 223 220 215 232 238 225 228 250 251 229 213 212 208 224 230 232 252 261 248 234 225 226 233
217 253 261 304 312 219 237 211 179 205 221 215 208 217 215 216 217 207 172 165 202 199 198 212 216 212 212 206 202 209 205 199 207 212 214 220 214 210 239 247 230 187 143 143 206 150 149 230 209 174 239 259 259 252 218 213 232 231 219 209 199 195 194 202 215 222 223 223 232 244 242 235 246 252 235 212 206 206 220 228 234 247 244 237 232 233 234 233
199 223 193 95 17 265 309 43 133 183 219 218 217 226 222 222 223 213 173 173 193 194 196 212 222 214 210 212 211 217 215 203 208 211 200 209 216 201 215 224 187 104 132 148 187 190 187 225 199 152 225 256 255 252 236 220 227 236 237 221 210 208 206 211 218 222 226 232 236 244 252 255 253 243 220 211 194 196 230 242 243 242 240 242 244 241 239 237
225 313 103 90 357 199 192 196 152 164 207 204 196 219 227 228 224 217 208 199 197 194 191 207 221 220 209 213 215 222 223 213 218 222 203 201 212 196 202 217 152 124 156 162 143 165 188 228 127 133 209 246 244 243 238 225 226 246 248 233 218 215 214 215 219 220 219 223 234 241 248 256 253 214 189 217 177 182 221 226 233 242 237 235 242 243 242 241
218 266 261 130 246 197 175 219 190 181 205 198 186 196 206 209 197 187 222 227 211 212 206 206 217 221 214 219 221 223 227 224 228 236 215 203 221 206 194 202 170 150 162 169 137 150 173 180 181 168 203 248 247 237 220 192 197 238 237 229 223 218 215 216 222 227 222 215 222 228 231 245 248 197 203 236 201 199 224 219 222 239 237 232 237 242 245 244